ATLAS 5 CENTAUR DEB, 43975

Orbit data source: Space-Track

ATLAS 5 CENTAUR DEB, 43975 is space debris in HEO originally from a launch on Wed, 17 Sep 2014 UTC launched from the Air Force Eastern Test Range (AFETR). Debris objects in space refer to the collection of defunct objects orbiting the Earth. Examples of debris include non-operational satellites, rocket bodies, and fragments generated from explosions, collisions, or faulty payload assembly.

Loading next visibility...
Identifier
43975, 2014-055AE
Orbit
HEO
Last TLE update
4 days ago
Origin
Flag of USUnited Launch Alliance/Lockheed Martin (US)
Manufacturer
Unknown
Mission
Spacecraft
Bus & Motor
Unknown
Mass
Unknown
Launch date (UTC)
2014-09-17 (11 years ago)
Launch vehicle
Unknown
Launch site
Air Force Eastern Test Range (AFETR)
Object type
Payload
Rocket body
Debris
Shape & HBR
Unknown
Radar Cross Section
Small (<0.1 m²)

Expand to show TLE details & history

TLE from 4 days ago
0 ATLAS 5 CENTAUR DEB
1 43975U 14055AE  25170.04972176  .00000027  00000-0  00000-0 0  9993
2 43975  20.6374 135.1682 5020073 181.1637 177.0180  1.93210486 47966
Epoch: 2025-06-19T01:11Z
TLE epoch observation values (Epoch: 2025-06-19T01:11:35.96Z)
Latitude
Longitude
-150.28556°
Altitude
34,510.443 km
Speed
2.204 km/s
True Right ascension
09h 00m 32s
True Declination
0° 00' 00"
Sunlit
Object was in daylight at epoch
Visualization orbit readout
Latitude
-3.0827°
Longitude
-158.90199°
Altitude
33,832.482 km
Speed
2.278 km/s
Apparent Right ascension
08h 53m 50s
Apparent Declination
-8° 44' 19"
Sunlit
Object is in daylight
Visualization observer readout
Local Sidereal Time
02:22:00
Azimuth
91.68° ESE
Elevation
-11.681°
Doppler factor
1
Orbital elements
Apogee altitude
34,524.641 km
Perigee altitude
7,183.238 km
Semi-major axis
27,232.076 km
Eccentricity
0.50201
Inclination
20.6374°
RAAN
135.1682°
Arg. of periapsis
181.1637°
True anomaly
Unknown
Mean anomaly
177.018°
Eccentric anomaly
Unknown
Mean motion
0.48297 °/min
Orbital period
745.38 mins
BSTAR
0
Loading maneuver chart data...
Loading SW <> Apogee altitude chart data...
Loading historical data...
Loading historical data...
Loading historical data...
Loading historical data...
Loading historical data...
Loading historical data...
Loading historical data...

ATLAS 5 CENTAUR DEB Visibility forecast

Observer location: undefined°, undefined°

Span
Click to sort rows by Start time (UTC) header in descending order
Start Az.
Max El. time (UTC)
Max El. Az.
Max El.
End time (UTC)
End Az.
62 mins2025-06-23 10:12:14.418Z265.411° W2025-06-23 10:45:14.418Z215.614° SW21.085°2025-06-23 11:14:14.418Z162.191° S
|